Regional Weather Roundup
Issued by NWS

Home | Current Version | Previous Version | Graphics & Text | Print | Product List | Glossary On
Versions: 1 2 3 4 5 6 7 8 9 10 11 12 13 14 15 16 17 18 19 20 21 22 23 24 25 26 27 28 29 30 31 32 33 34 35 36 37 38 39 40 41 42 43 44 45 46 47 48 49 50
747
ASUS43 KDTX 250901
RWRMI
MICHIGAN HOURLY REGIONAL WEATHER ROUNDUP
NATIONAL WEATHER SERVICE DETROIT/PONTIAC MI
500 AM EDT SAT MAR 25 2017

NOTE: "FAIR" INDICATES FEW OR NO CLOUDS BELOW 12,000 FEET WITH NO
SIGNIFICANT WEATHER AND/OR OBSTRUCTION TO VISIBILITY.

MIZ047>049-052>055-059>063-066>070-074>076-081>083-251000-
SOUTHEAST LOWER MICHIGAN

CITY           SKY/WX    TMP DP  RH WIND       PRES   REMARKS
ADRIAN         MOCLDY    45  41  86 E5        30.07F
ALMA           LGT RAIN  37  36  97 NE9       30.13R WCI  30
ANN ARBOR      CLOUDY    46  40  79 NE5       30.07R
BAD AXE        FLURRIES  34  33  96 NE10      30.16R WCI  26
CARO           RAIN      36  35  96 N6        30.13S WCI  31
DETROIT CITY   CLOUDY    42  41  96 NE7       30.09S
DETROIT        CLOUDY    46  40  79 NE6       30.09S
FLINT          LGT RAIN  39  36  89 N10       30.12R WCI  32
GROSSE ILE     CLOUDY    44  39  83 NE7       30.07S
HILLSDALE      CLOUDY    48  43  81 E6        30.04S
HOWELL         DRIZZLE   39  38  93 NE6       30.09R

CITY           SKY/WX    TMP DP  RH WIND       PRES   REMARKS
JACKSON        LGT RAIN  45  42  89 NE8       30.07R
LAMBERTVILLE   PTCLDY    46  40  78 SE8       30.07F
LANSING        LGT RAIN  38  36  92 NE9       30.12R FOG     WCI  31
LAPEER         CLOUDY    38  37  96 NE8       30.12R WCI  32
MASON          RAIN      40  40  97 NE8       30.09S WCI  35
MONROE         CLOUDY    46  41  80 E6        30.06F
MT. CLEMENS    CLOUDY    40  40 100 NE6       30.08R
PONTIAC        HVY RAIN  40  32  73 N6        30.08S
PORT HOPE        N/A     34  33  96 NE12      30.17R WCI  25
PORT HURON     DRIZZLE   36  34  93 N6        30.11F WCI  31
TRI CITIES     LGT RAIN  35  35 100 NE16      30.14F WCI  25
MIDLAND        DRIZZLE   36  34  92 NE8G16    30.14F WCI  30
TROY           CLOUDY    41  38  89 NE8       30.11S
SAGINAW HB     CLOUDY    36  32  87 N13       30.13F WCI  27
$$
MIZ043>046-050>051-056>058-064>065-071>073-077>080-251000-
SOUTHWEST LOWER MICHIGAN

CITY           SKY/WX    TMP DP  RH WIND       PRES   REMARKS
BATTLE CREEK   CLOUDY    44  43  96 NE9       30.06S
BENTON HARBOR  LGT RAIN  42  41  96 CALM      30.03F FOG
BIG RAPIDS     FLURRIES  36  33  89 E7        30.13R WCI  30
COLDWATER      CLOUDY    48  44  84 NE6       30.04S
FREMONT        LGT RAIN  39  37  91 E13       30.10S WCI  31
HOLLAND        LGT RAIN  42  37  82 E10       30.06F
GRAND RAPIDS   LGT RAIN  40  36  86 E14       30.08F WCI  32
IONIA          CLOUDY    37  35  90 NE12      30.10S WCI  30
KALAMAZOO      LGT RAIN  45  42  89 NE6       30.05R FOG
LUDINGTON      CLOUDY    37  37 100 NE7       30.12F WCI  31
MARSHALL       CLOUDY    44  44  98 NE5       30.06S FOG
MOUNT PLEASANT CLOUDY    36  34  93 NE7       30.13F WCI  30
MUSKEGON       LGT RAIN  41  38  89 NE9       30.09S
SOUTH HAVEN    MIX PCPN  44  42  95 E7        30.05R
$$
MIZ016>042-251000-
NORTHERN LOWER MICHIGAN

CITY           SKY/WX    TMP DP  RH WIND       PRES   REMARKS
ALPENA         CLOUDY    35  34  96 NE7       30.24R WCI  29
BEAVER ISLAND  CLOUDY    33  32  95 NE7       30.24S WCI  27
BELLAIRE       CLOUDY    35  33  90 NE6       30.21R WCI  30
CADILLAC       CLOUDY    33  32  96 E9        30.14R WCI  25
CHARLEVOIX     CLOUDY    35  35 100 NE8       30.25R WCI  28
FRANKFORT      LGT RAIN  35  33  90 NE6       30.17S WCI  30
GAYLORD        CLOUDY    34  31  88 NE7       30.18S WCI  28
GRAYLING       LGT RAIN  34  32  93 E7        30.18S WCI  28
HARBOR SPRINGS CLOUDY    34  33  94 NE9       30.22S WCI  27
HOUGHTON LAKE  CLOUDY    33  31  92 NE9       30.17R WCI  25
MANISTEE       LGT RAIN  36  34  92 NE9       30.15S WCI  29
OSCODA         MIX PCPN  35  34  95 NE12      30.19F WCI  27
PELLSTON       CLOUDY    34  31  88 E8        30.24R WCI  27
ROGERS CITY    CLOUDY    34  32  94 NE3         N/A
TRAVERSE CITY  LGT RAIN  36  34  92 NE7       30.19R FOG     WCI  30
$$
MIZ007>008-015-251000-
EASTERN UPPER MICHIGAN

CITY           SKY/WX    TMP DP  RH WIND       PRES   REMARKS
KINROSS        CLOUDY    33  29  85 NE10      30.27R WCI  25
MACKINAC ISLAN CLOUDY    32  32 100 NE8       30.25S WCI  25
NEWBERRY       CLOUDY    31  30  96 NE5       30.25F WCI  26
S. S. MARIE    CLOUDY    33  26  75 E7        30.28R WCI  27
MUNISING         N/A     33  31  92 N5        30.26S WCI  29
$$
MIZ004>006-011>014-085-251000-
CENTRAL UPPER MICHIGAN

CITY           SKY/WX    TMP DP  RH WIND       PRES   REMARKS
MANISTIQUE     CLOUDY    32  32 100 NE6       30.24F WCI  26
ESCANABA       CLOUDY    34  32  92 N8        30.24F WCI  27
MENOMINEE        N/A    N/A N/A N/A MISG        N/A
SAWYER-GWINN   CLOUDY    31  29  94 NE8       30.25R WCI  23
$$
MIZ001>003-009>011-084-251000-
WESTERN UPPER MICHIGAN

CITY           SKY/WX    TMP DP  RH WIND       PRES   REMARKS
IRON MOUNTAIN  CLOUDY    33  29  85 N5        30.21S WCI  29
HOUGHTON       CLOUDY    32  25  75 E9        30.28R WCI  24
COPPER HARBOR    N/A     32  24  72 SE8       30.31S WCI  25
IRONWOOD       CLOUDY    32  29  88 NE5       30.26R WCI  27
$$

ABBREVIATIONS USED IN REMARKS
   TC - TEMPERATURE IN CELSIUS
  WCI - WIND CHILL INDEX
   HX - HEAT INDEX
  VSB - VISIBILITY





USA.gov is the U.S. government's official web portal to all federal, state and local government web resources and services.